Austin, MN

4:46 AM CDT on April 29, 2017 (GMT -0500)
Austin Municipal

Weather History for KAUM - August, 2013

Change the Weather History Date:

Monday, August 19, 2013

  Actual Average Record
Temperature  
Mean Temperature 70 °F -  
Max Temperature 82 °F 75 °F 87 °F (2011)
Min Temperature 57 °F 57 °F 44 °F (2004)
Cooling Degree Days 4    
Growing Degree Days 20 (Base 50)    
Moisture  
Dew Point 59 °F    
Average Humidity 71    
Maximum Humidity 94    
Minimum Humidity 48    
Precipitation  
Precipitation 0.00 in - - ()
Sea Level Pressure  
Sea Level Pressure 30.03 in    
Wind  
Wind Speed 6 mph (South)    
Max Wind Speed 16 mph    
Max Gust Speed 22 mph    
Visibility 10 miles    
Events      
Averages and records for this station are not official NWS values.
T = Trace of Precipitation, MM = Missing Value Source: NWS Daily Summary

Daily Weather History Graph

Daily Weather History Graph

Search for Another Location

Airport or City:

Trip Planner

Search our weather history database for the weather conditions in past years. The results will help you decide how hot, cold, wet, or windy it might be!

Date:

Astronomy

Aug. 19, 2013 Rise Set
Actual Time 6:21 AM CDT 8:08 PM CDT
Civil Twilight 5:50 AM CDT 8:39 PM CDT
Nautical Twilight 5:13 AM CDT 9:16 PM CDT
Astronomical Twilight 4:32 AM CDT 9:56 PM CDT
Moon 7:00 PM CDT (8/19) 4:39 AM CDT (8/19)
Length of Visible Light 14h 48m
Length of Day
13h 47m
Waxing Gibbous, 97% of the Moon is Illuminated
Aug 19
Waxing Gibbous
Aug 20
Full
Aug 28
Last Quarter
Sep 5
New
Sep 12
First Quarter

Hourly Weather History & Observations

Time (CDT) Temp. Heat Index Dew Point Humidity Pressure Visibility Wind Dir Wind Speed Gust Speed Precip Events Conditions
12:16 AM 62.6 °F - 55.4 °F 77% 30.08 in 10.0 mi South 4.6 mph - N/A   Clear
12:37 AM 60.8 °F - 55.4 °F 82% 30.08 in 10.0 mi South 4.6 mph - N/A   Clear
12:56 AM 60.8 °F - 55.4 °F 82% 30.08 in 10.0 mi South 4.6 mph - N/A   Clear
1:16 AM 60.8 °F - 55.4 °F 82% 30.08 in 10.0 mi South 4.6 mph - N/A   Clear
1:36 AM 60.8 °F - 55.4 °F 82% 30.08 in 10.0 mi South 5.8 mph - N/A   Clear
1:56 AM 60.8 °F - 55.4 °F 82% 30.08 in 10.0 mi South 3.5 mph - N/A   Clear
2:16 AM 60.8 °F - 55.4 °F 82% 30.08 in 10.0 mi Calm Calm - N/A   Clear
2:36 AM 60.8 °F - 55.4 °F 82% 30.08 in 10.0 mi South 4.6 mph - N/A   Clear
2:56 AM 60.8 °F - 55.4 °F 82% 30.08 in 10.0 mi SSE 3.5 mph - N/A   Clear
3:17 AM 59.0 °F - 55.4 °F 88% 30.07 in 10.0 mi South 3.5 mph - N/A   Clear
3:36 AM 59.0 °F - 55.4 °F 88% 30.07 in 10.0 mi SSE 3.5 mph - N/A   Clear
3:56 AM 59.0 °F - 55.4 °F 88% 30.06 in 10.0 mi South 4.6 mph - N/A   Clear
4:17 AM 59.0 °F - 55.4 °F 88% 30.06 in 10.0 mi South 3.5 mph - N/A   Clear
4:36 AM 59.0 °F - 55.4 °F 88% 30.06 in 10.0 mi South 3.5 mph - N/A   Clear
4:56 AM 59.0 °F - 55.4 °F 88% 30.06 in 10.0 mi South 3.5 mph - N/A   Scattered Clouds
5:17 AM 57.2 °F - 53.6 °F 88% 30.06 in 10.0 mi Calm Calm - N/A   Scattered Clouds
5:36 AM 59.0 °F - 55.4 °F 88% 30.05 in 10.0 mi SSE 4.6 mph - N/A   Mostly Cloudy
5:56 AM 59.0 °F - 53.6 °F 82% 30.05 in 10.0 mi SSE 5.8 mph - N/A   Mostly Cloudy
6:16 AM 57.2 °F - 55.4 °F 94% 30.06 in 10.0 mi Calm Calm - N/A   Scattered Clouds
6:36 AM 59.0 °F - 55.4 °F 88% 30.06 in 10.0 mi SSE 3.5 mph - N/A   Scattered Clouds
6:57 AM 59.0 °F - 55.4 °F 88% 30.06 in 7.0 mi SSE 4.6 mph - N/A   Clear
7:16 AM 59.0 °F - 55.4 °F 88% 30.05 in 10.0 mi SSE 5.8 mph - N/A   Clear
7:36 AM 60.8 °F - 55.4 °F 82% 30.06 in 10.0 mi South 3.5 mph - N/A   Clear
7:57 AM 60.8 °F - 55.4 °F 82% 30.05 in 10.0 mi South 5.8 mph - N/A   Clear
8:16 AM 62.6 °F - 55.4 °F 77% 30.06 in 10.0 mi South 3.5 mph - N/A   Scattered Clouds
8:36 AM 62.6 °F - 57.2 °F 82% 30.06 in 10.0 mi South 5.8 mph - N/A   Scattered Clouds
8:56 AM 64.4 °F - 57.2 °F 77% 30.06 in 10.0 mi South 8.1 mph - N/A   Scattered Clouds
9:16 AM 66.2 °F - 57.2 °F 73% 30.05 in 10.0 mi South 6.9 mph - N/A   Scattered Clouds
9:36 AM 66.2 °F - 57.2 °F 73% 30.05 in 10.0 mi South 10.4 mph - N/A   Clear
9:56 AM 66.2 °F - 57.2 °F 73% 30.05 in 10.0 mi SSW 9.2 mph - N/A   Clear
10:16 AM 68.0 °F - 59.0 °F 73% 30.05 in 10.0 mi SSW 9.2 mph - N/A   Clear
10:36 AM 69.8 °F - 59.0 °F 68% 30.04 in 10.0 mi SSW 12.7 mph - N/A   Clear
10:57 AM 71.6 °F - 60.8 °F 69% 30.04 in 10.0 mi SSW 10.4 mph - N/A   Clear
11:16 AM 71.6 °F - 60.8 °F 69% 30.04 in 10.0 mi South 10.4 mph - N/A   Clear
11:36 AM 73.4 °F - 60.8 °F 65% 30.04 in 10.0 mi SSW 8.1 mph - N/A   Clear
11:56 AM 75.2 °F - 60.8 °F 61% 30.04 in 10.0 mi SSW 12.7 mph - N/A   Clear
12:16 PM 75.2 °F - 60.8 °F 61% 30.04 in 10.0 mi SSW 11.5 mph 17.3 mph N/A   Clear
12:37 PM 77.0 °F - 60.8 °F 57% 30.03 in 10.0 mi SSW 11.5 mph 17.3 mph N/A   Clear
12:56 PM 78.8 °F - 60.8 °F 54% 30.02 in 10.0 mi SW 13.8 mph - N/A   Clear
1:16 PM 80.6 °F 81.5 °F 60.8 °F 51% 30.02 in 10.0 mi SSW 13.8 mph 17.3 mph N/A   Clear
1:37 PM 80.6 °F 81.5 °F 60.8 °F 51% 30.02 in 10.0 mi SSW 11.5 mph 18.4 mph N/A   Scattered Clouds
1:56 PM 80.6 °F 81.5 °F 60.8 °F 51% 30.01 in 10.0 mi South 12.7 mph - N/A   Mostly Cloudy
2:16 PM 80.6 °F 81.5 °F 60.8 °F 51% 30.02 in 7.0 mi SSW 13.8 mph - N/A   Mostly Cloudy
2:36 PM 80.6 °F 81.5 °F 60.8 °F 51% 30.02 in 10.0 mi SSW 16.1 mph 21.9 mph N/A   Scattered Clouds
2:57 PM 80.6 °F 81.5 °F 60.8 °F 51% 30.01 in 10.0 mi SSW 12.7 mph - N/A   Scattered Clouds
3:16 PM 82.4 °F 82.9 °F 60.8 °F 48% 30.01 in 10.0 mi SSW 12.7 mph - N/A   Scattered Clouds
3:36 PM 82.4 °F 82.9 °F 60.8 °F 48% 30.01 in 10.0 mi SSW 12.7 mph - N/A   Scattered Clouds
3:56 PM 80.6 °F 81.5 °F 60.8 °F 51% 30.00 in 10.0 mi SSW 12.7 mph 17.3 mph N/A   Scattered Clouds
4:16 PM 80.6 °F 81.5 °F 60.8 °F 51% 30.00 in 10.0 mi SSW 11.5 mph 19.6 mph N/A   Scattered Clouds
4:37 PM 82.4 °F 83.4 °F 62.6 °F 51% 29.99 in 10.0 mi SSW 10.4 mph 17.3 mph N/A   Scattered Clouds
4:56 PM 80.6 °F 81.8 °F 62.6 °F 54% 30.00 in 10.0 mi SSW 10.4 mph 18.4 mph N/A   Scattered Clouds
5:16 PM 80.6 °F 81.5 °F 60.8 °F 51% 29.99 in 10.0 mi SSW 11.5 mph 18.4 mph N/A   Mostly Cloudy
5:37 PM 80.6 °F 81.8 °F 62.6 °F 54% 29.99 in 10.0 mi SSW 11.5 mph - N/A   Mostly Cloudy
5:56 PM 80.6 °F 81.8 °F 62.6 °F 54% 29.99 in 10.0 mi South 13.8 mph - N/A   Mostly Cloudy
6:16 PM 78.8 °F - 62.6 °F 57% 29.98 in 10.0 mi South 11.5 mph 17.3 mph N/A   Scattered Clouds
6:37 PM 78.8 °F - 62.6 °F 57% 29.98 in 10.0 mi South 10.4 mph 16.1 mph N/A   Clear
6:56 PM 78.8 °F - 62.6 °F 57% 29.98 in 10.0 mi South 11.5 mph - N/A   Clear
7:16 PM 77.0 °F - 62.6 °F 61% 29.97 in 10.0 mi South 9.2 mph - N/A   Clear
7:36 PM 75.2 °F - 62.6 °F 65% 29.97 in 10.0 mi SSE 8.1 mph - N/A   Clear
7:56 PM 75.2 °F - 62.6 °F 65% 29.98 in 10.0 mi South 8.1 mph - N/A   Clear
8:16 PM 73.4 °F - 62.6 °F 69% 29.98 in 10.0 mi South 5.8 mph - N/A   Clear
8:36 PM 73.4 °F - 62.6 °F 69% 29.98 in 10.0 mi SSE 5.8 mph - N/A   Clear
8:56 PM 71.6 °F - 62.6 °F 73% 29.98 in 7.0 mi SSE 4.6 mph - N/A   Clear
9:17 PM 71.6 °F - 62.6 °F 73% 29.99 in 10.0 mi South 4.6 mph - N/A   Clear
9:36 PM 71.6 °F - 62.6 °F 73% 29.99 in 10.0 mi South 5.8 mph - N/A   Clear
9:56 PM 69.8 °F - 62.6 °F 78% 30.00 in 10.0 mi SSE 5.8 mph - N/A   Clear
10:17 PM 69.8 °F - 62.6 °F 78% 30.00 in 10.0 mi South 5.8 mph - N/A   Clear
10:36 PM 69.8 °F - 60.8 °F 73% 30.00 in 10.0 mi South 6.9 mph - N/A   Clear
10:56 PM 69.8 °F - 60.8 °F 73% 30.00 in 10.0 mi South 5.8 mph - N/A   Clear
11:17 PM 69.8 °F - 60.8 °F 73% 30.00 in 10.0 mi South 5.8 mph - N/A   Mostly Cloudy
11:36 PM 69.8 °F - 60.8 °F 73% 29.99 in 10.0 mi South 5.8 mph - N/A   Scattered Clouds
11:56 PM 68.0 °F - 60.8 °F 78% 29.99 in 10.0 mi South 4.6 mph - N/A   Clear